Year,Month,Day,Hour,Minute,Value (Times are PST for temperature in C)
2013,06,12,00,00,11.10
2013,06,12,00,01,11.10
2013,06,12,00,02,11.20
2013,06,12,00,03,11.20
2013,06,12,00,04,11.20
2013,06,12,00,05,11.20
2013,06,12,00,06,11.20
2013,06,12,00,07,11.20
2013,06,12,00,08,11.20
2013,06,12,00,09,11.20
2013,06,12,00,10,11.20
2013,06,12,00,11,11.20
2013,06,12,00,12,11.20
2013,06,12,00,13,11.30
2013,06,12,00,14,11.30
2013,06,12,00,15,11.30
2013,06,12,00,16,11.30
2013,06,12,00,17,11.30
2013,06,12,00,18,11.30
2013,06,12,00,19,11.30
2013,06,12,00,20,11.30
2013,06,12,00,21,11.30
2013,06,12,00,22,11.30
2013,06,12,00,23,11.30
2013,06,12,00,24,11.30
2013,06,12,00,25,11.30
2013,06,12,00,26,11.30
2013,06,12,00,27,11.30
2013,06,12,00,28,11.20
2013,06,12,00,29,11.20
2013,06,12,00,30,11.20
2013,06,12,00,31,11.20
2013,06,12,00,32,11.20
2013,06,12,00,33,11.10
2013,06,12,00,34,11.20
2013,06,12,00,35,11.10
2013,06,12,00,36,11.10
2013,06,12,00,37,11.10
2013,06,12,00,38,11.10
2013,06,12,00,39,11.10
2013,06,12,00,40,11.00
2013,06,12,00,41,11.00
2013,06,12,00,42,11.00
2013,06,12,00,43,11.00
2013,06,12,00,44,11.00
2013,06,12,00,45,11.00
2013,06,12,00,46,10.90
2013,06,12,00,47,10.90
2013,06,12,00,48,10.90
2013,06,12,00,49,10.90
2013,06,12,00,50,10.90
2013,06,12,00,51,10.90
2013,06,12,00,52,10.90
2013,06,12,00,53,10.90
2013,06,12,00,54,10.90
2013,06,12,00,55,10.90
2013,06,12,00,56,10.90
2013,06,12,00,57,10.90
2013,06,12,00,58,10.90
2013,06,12,00,59,11.00
2013,06,12,01,00,11.00
2013,06,12,01,01,11.00
2013,06,12,01,02,11.00
2013,06,12,01,03,11.10
2013,06,12,01,04,11.10
2013,06,12,01,05,11.10
2013,06,12,01,06,11.10
2013,06,12,01,07,11.10
2013,06,12,01,08,11.20
2013,06,12,01,09,11.10
2013,06,12,01,10,11.20
2013,06,12,01,11,11.20
2013,06,12,01,12,11.20
2013,06,12,01,13,11.10
2013,06,12,01,14,11.10
2013,06,12,01,15,11.10
2013,06,12,01,16,11.10
2013,06,12,01,17,11.10
2013,06,12,01,18,11.10
2013,06,12,01,19,11.10
2013,06,12,01,20,11.10
2013,06,12,01,21,11.10
2013,06,12,01,22,11.10
2013,06,12,01,23,11.10
2013,06,12,01,24,11.10
2013,06,12,01,25,11.10
2013,06,12,01,26,11.10
2013,06,12,01,27,11.20
2013,06,12,01,28,11.20
2013,06,12,01,29,11.20
2013,06,12,01,30,11.30
2013,06,12,01,31,11.30
2013,06,12,01,32,11.30
2013,06,12,01,33,11.30
2013,06,12,01,34,11.30
2013,06,12,01,35,11.30
2013,06,12,01,36,11.30
2013,06,12,01,37,11.30
2013,06,12,01,38,11.30
2013,06,12,01,39,11.30
2013,06,12,01,40,11.30
2013,06,12,01,41,11.40
2013,06,12,01,42,11.40
2013,06,12,01,43,11.40
2013,06,12,01,44,11.40
2013,06,12,01,45,11.40
2013,06,12,01,46,11.40
2013,06,12,01,47,11.40
2013,06,12,01,48,11.40
2013,06,12,01,49,11.40
2013,06,12,01,50,11.40
2013,06,12,01,51,11.40
2013,06,12,01,52,11.30
2013,06,12,01,53,11.30
2013,06,12,01,54,11.30
2013,06,12,01,55,11.30
2013,06,12,01,56,11.30
2013,06,12,01,57,11.30
2013,06,12,01,58,11.30
2013,06,12,01,59,11.30
2013,06,12,02,00,11.30
2013,06,12,02,01,11.30
2013,06,12,02,02,11.30
2013,06,12,02,03,11.30
2013,06,12,02,04,11.30
2013,06,12,02,05,11.30
2013,06,12,02,06,11.30
2013,06,12,02,07,11.30
2013,06,12,02,08,11.30
2013,06,12,02,09,11.30
2013,06,12,02,10,11.30
2013,06,12,02,11,11.30
2013,06,12,02,12,11.30
2013,06,12,02,13,11.30
2013,06,12,02,14,11.30
2013,06,12,02,15,11.30
2013,06,12,02,16,11.30
2013,06,12,02,17,11.30
2013,06,12,02,18,11.30
2013,06,12,02,19,11.30
2013,06,12,02,20,11.30
2013,06,12,02,21,11.30
2013,06,12,02,22,11.30
2013,06,12,02,23,11.30
2013,06,12,02,24,11.30
2013,06,12,02,25,11.30
2013,06,12,02,26,11.30
2013,06,12,02,27,11.30
2013,06,12,02,28,11.30
2013,06,12,02,29,11.30
2013,06,12,02,30,11.30
2013,06,12,02,31,11.30
2013,06,12,02,32,11.30
2013,06,12,02,33,11.30
2013,06,12,02,34,11.30
2013,06,12,02,35,11.30
2013,06,12,02,36,11.30
2013,06,12,02,37,11.20
2013,06,12,02,38,11.20
2013,06,12,02,39,11.20
2013,06,12,02,40,11.20
2013,06,12,02,41,11.20
2013,06,12,02,42,11.20
2013,06,12,02,43,11.20
2013,06,12,02,44,11.20
2013,06,12,02,45,11.20
2013,06,12,02,46,11.20
2013,06,12,02,47,11.20
2013,06,12,02,48,11.20
2013,06,12,02,49,11.20
2013,06,12,02,50,11.20
2013,06,12,02,51,11.20
2013,06,12,02,52,11.20
2013,06,12,02,53,11.20
2013,06,12,02,54,11.20
2013,06,12,02,55,11.20
2013,06,12,02,56,11.10
2013,06,12,02,57,11.10
2013,06,12,02,58,11.00
2013,06,12,02,59,11.00
2013,06,12,03,00,10.90
2013,06,12,03,01,10.90
2013,06,12,03,02,10.80
2013,06,12,03,06,10.80
2013,06,12,03,07,10.80
2013,06,12,03,08,10.80
2013,06,12,03,09,10.70
2013,06,12,03,10,10.70
2013,06,12,03,11,10.70
2013,06,12,03,12,10.70
2013,06,12,03,13,10.70
2013,06,12,03,14,10.70
2013,06,12,03,15,10.70
2013,06,12,03,16,10.70
2013,06,12,03,17,10.70
2013,06,12,03,18,10.70
2013,06,12,03,19,10.70
2013,06,12,03,20,10.70
2013,06,12,03,21,10.70
2013,06,12,03,22,10.70
2013,06,12,03,23,10.70
2013,06,12,03,24,10.70
2013,06,12,03,25,10.70
2013,06,12,03,26,10.60
2013,06,12,03,27,10.60
2013,06,12,03,28,10.60
2013,06,12,03,29,10.60
2013,06,12,03,30,10.60
2013,06,12,03,31,10.60
2013,06,12,03,32,10.60
2013,06,12,03,33,10.50
2013,06,12,03,34,10.50
2013,06,12,03,35,10.50
2013,06,12,03,36,10.50
2013,06,12,03,37,10.50
2013,06,12,03,38,10.40
2013,06,12,03,39,10.40
2013,06,12,03,40,10.40
2013,06,12,03,41,10.40
2013,06,12,03,42,10.40
2013,06,12,03,43,10.40
2013,06,12,03,44,10.40
2013,06,12,03,45,10.40
2013,06,12,03,46,10.30
2013,06,12,03,47,10.30
2013,06,12,03,48,10.30
2013,06,12,03,49,10.30
2013,06,12,03,50,10.30
2013,06,12,03,51,10.30
2013,06,12,03,52,10.20
2013,06,12,03,53,10.20
2013,06,12,03,54,10.20
2013,06,12,03,55,10.20
2013,06,12,03,56,10.20
2013,06,12,03,57,10.20
2013,06,12,03,58,10.20
2013,06,12,03,59,10.20
2013,06,12,04,00,10.20
2013,06,12,04,01,10.20
2013,06,12,04,02,10.10
2013,06,12,04,03,10.20
2013,06,12,04,04,10.20
2013,06,12,04,05,10.20
2013,06,12,04,06,10.20
2013,06,12,04,07,10.20
2013,06,12,04,08,10.20
2013,06,12,04,09,10.30
2013,06,12,04,10,10.30
2013,06,12,04,11,10.30
2013,06,12,04,12,10.30
2013,06,12,04,13,10.30
2013,06,12,04,14,10.40
2013,06,12,04,15,10.40
2013,06,12,04,16,10.40
2013,06,12,04,17,10.50
2013,06,12,04,18,10.50
2013,06,12,04,19,10.60
2013,06,12,04,20,10.60
2013,06,12,04,21,10.60
2013,06,12,04,22,10.60
2013,06,12,04,23,10.60
2013,06,12,04,24,10.70
2013,06,12,04,25,10.70
2013,06,12,04,26,10.70
2013,06,12,04,27,10.70
2013,06,12,04,28,10.70
2013,06,12,04,29,10.70
2013,06,12,04,30,10.70
2013,06,12,04,31,10.70
2013,06,12,04,32,10.70
2013,06,12,04,33,10.80
2013,06,12,04,34,10.80
2013,06,12,04,35,10.80
2013,06,12,04,36,10.80
2013,06,12,04,37,10.80
2013,06,12,04,38,10.80
2013,06,12,04,39,10.90
2013,06,12,04,40,10.90
2013,06,12,04,41,10.90
2013,06,12,04,42,10.90
2013,06,12,04,43,10.90
2013,06,12,04,44,10.90
2013,06,12,04,45,10.90
2013,06,12,04,46,10.90
2013,06,12,04,47,10.80
2013,06,12,04,48,10.80
2013,06,12,04,49,10.90
2013,06,12,04,50,10.80
2013,06,12,04,51,10.80
2013,06,12,04,52,10.80
2013,06,12,04,53,10.80
2013,06,12,04,54,10.80
2013,06,12,04,55,10.80
2013,06,12,04,56,10.80
2013,06,12,04,57,10.80
2013,06,12,04,58,10.80
2013,06,12,04,59,10.80
2013,06,12,05,00,10.80
2013,06,12,05,01,10.80
2013,06,12,05,02,10.80
2013,06,12,05,03,10.80
2013,06,12,05,04,10.80
2013,06,12,05,05,10.70
2013,06,12,05,06,10.70
2013,06,12,05,07,10.70
2013,06,12,05,08,10.70
2013,06,12,05,09,10.70
2013,06,12,05,10,10.70
2013,06,12,05,11,10.60
2013,06,12,05,12,10.60
2013,06,12,05,13,10.60
2013,06,12,05,14,10.60
2013,06,12,05,15,10.60
2013,06,12,05,16,10.50
2013,06,12,05,17,10.50
2013,06,12,05,18,10.50
2013,06,12,05,19,10.50
2013,06,12,05,20,10.40
2013,06,12,05,21,10.40
2013,06,12,05,22,10.40
2013,06,12,05,23,10.40
2013,06,12,05,24,10.40
2013,06,12,05,25,10.30
2013,06,12,05,26,10.30
2013,06,12,05,27,10.30
2013,06,12,05,28,10.30
2013,06,12,05,29,10.30
2013,06,12,05,30,10.30
2013,06,12,05,31,10.30
2013,06,12,05,32,10.30
2013,06,12,05,33,10.30
2013,06,12,05,34,10.30
2013,06,12,05,35,10.30
2013,06,12,05,36,10.30
2013,06,12,05,37,10.30
2013,06,12,05,38,10.40
2013,06,12,05,39,10.40
2013,06,12,05,40,10.40
2013,06,12,05,41,10.40
2013,06,12,05,42,10.40
2013,06,12,05,43,10.40
2013,06,12,05,44,10.40
2013,06,12,05,45,10.40
2013,06,12,05,46,10.40
2013,06,12,05,47,10.40
2013,06,12,05,48,10.40
2013,06,12,05,49,10.40
2013,06,12,05,50,10.40
2013,06,12,05,51,10.40
2013,06,12,05,52,10.40
2013,06,12,05,53,10.30
2013,06,12,05,54,10.30
2013,06,12,05,55,10.30
2013,06,12,05,56,10.30
2013,06,12,05,57,10.30
2013,06,12,05,58,10.30
2013,06,12,05,59,10.30
2013,06,12,06,00,10.40
2013,06,12,06,01,10.40
2013,06,12,06,02,10.40
2013,06,12,06,03,10.50
2013,06,12,06,04,10.50
2013,06,12,06,05,10.60
2013,06,12,06,06,10.60
2013,06,12,06,07,10.70
2013,06,12,06,08,10.70
2013,06,12,06,09,10.80
2013,06,12,06,10,10.80
2013,06,12,06,11,10.90
2013,06,12,06,12,10.90
2013,06,12,06,13,11.00
2013,06,12,06,14,11.00
2013,06,12,06,15,11.10
2013,06,12,06,16,11.10
2013,06,12,06,17,11.10
2013,06,12,06,18,11.20
2013,06,12,06,19,11.20
2013,06,12,06,20,11.30
2013,06,12,06,21,11.40
2013,06,12,06,22,11.50
2013,06,12,06,23,11.60
2013,06,12,06,24,11.70
2013,06,12,06,25,11.80
2013,06,12,06,26,11.90
2013,06,12,06,27,12.00
2013,06,12,06,28,12.00
2013,06,12,06,29,12.10
2013,06,12,06,30,12.10
2013,06,12,06,31,12.20
2013,06,12,06,32,12.20
2013,06,12,06,33,12.30
2013,06,12,06,34,12.30
2013,06,12,06,35,12.40
2013,06,12,06,36,12.50
2013,06,12,06,37,12.60
2013,06,12,06,38,12.70
2013,06,12,06,39,12.70
2013,06,12,06,40,12.80
2013,06,12,06,41,12.80
2013,06,12,06,42,12.90
2013,06,12,06,43,13.00
2013,06,12,06,44,13.00
2013,06,12,06,45,13.10
2013,06,12,06,46,13.10
2013,06,12,06,47,13.10
2013,06,12,06,48,13.10
2013,06,12,06,49,13.10
2013,06,12,06,50,13.10
2013,06,12,06,51,13.10
2013,06,12,06,52,13.10
2013,06,12,06,53,13.10
2013,06,12,06,54,13.10
2013,06,12,06,55,13.10
2013,06,12,06,56,13.20
2013,06,12,06,57,13.20
2013,06,12,06,58,13.30
2013,06,12,06,59,13.30
2013,06,12,07,00,13.30
2013,06,12,07,01,13.30
2013,06,12,07,02,13.30
2013,06,12,07,03,13.30
2013,06,12,07,04,13.30
2013,06,12,07,05,13.30
2013,06,12,07,06,13.30
2013,06,12,07,07,13.30
2013,06,12,07,08,13.30
2013,06,12,07,09,13.30
2013,06,12,07,10,13.30
2013,06,12,07,11,13.30
2013,06,12,07,12,13.30
2013,06,12,07,13,13.30
2013,06,12,07,14,13.30
2013,06,12,07,15,13.30
2013,06,12,07,16,13.40
2013,06,12,07,17,13.50
2013,06,12,07,18,13.50
2013,06,12,07,19,13.60
2013,06,12,07,20,13.60
2013,06,12,07,21,13.70
2013,06,12,07,22,13.70
2013,06,12,07,23,13.80
2013,06,12,07,24,13.80
2013,06,12,07,25,13.90
2013,06,12,07,26,13.90
2013,06,12,07,27,13.90
2013,06,12,07,28,13.90
2013,06,12,07,29,13.90
2013,06,12,07,30,13.90
2013,06,12,07,31,13.80
2013,06,12,07,32,13.80
2013,06,12,07,33,13.70
2013,06,12,07,34,13.60
2013,06,12,07,35,13.60
2013,06,12,07,36,13.60
2013,06,12,07,37,13.50
2013,06,12,07,38,13.50
2013,06,12,07,39,13.50
2013,06,12,07,40,13.50
2013,06,12,07,41,13.50
2013,06,12,07,42,13.50
2013,06,12,07,43,13.40
2013,06,12,07,44,13.30
2013,06,12,07,45,13.20
2013,06,12,07,46,13.20
2013,06,12,07,47,13.10
2013,06,12,07,48,13.10
2013,06,12,07,49,13.00
2013,06,12,07,50,13.00
2013,06,12,07,51,13.00
2013,06,12,07,52,13.00
2013,06,12,07,53,12.90
2013,06,12,07,54,12.90
2013,06,12,07,55,12.90
2013,06,12,07,56,12.90
2013,06,12,07,57,12.90
2013,06,12,07,58,12.90
2013,06,12,07,59,12.90
2013,06,12,08,00,12.90
2013,06,12,08,01,12.90
2013,06,12,08,02,12.90
2013,06,12,08,03,12.90
2013,06,12,08,04,12.90
2013,06,12,08,05,12.90
2013,06,12,08,06,12.90
2013,06,12,08,07,12.90
2013,06,12,08,08,12.90
2013,06,12,08,09,13.00
2013,06,12,08,10,13.00
2013,06,12,08,11,13.00
2013,06,12,08,12,13.00
2013,06,12,08,13,13.00
2013,06,12,08,14,13.00
2013,06,12,08,15,12.90
2013,06,12,08,16,12.90
2013,06,12,08,17,12.90
2013,06,12,08,18,12.90
2013,06,12,08,19,12.90
2013,06,12,08,20,12.90
2013,06,12,08,21,12.90
2013,06,12,08,22,12.90
2013,06,12,08,23,12.90
2013,06,12,08,24,12.80
2013,06,12,08,25,12.80
2013,06,12,08,26,12.80
2013,06,12,08,27,12.80
2013,06,12,08,28,12.80
2013,06,12,08,29,12.70
2013,06,12,08,30,12.60
2013,06,12,08,31,12.60
2013,06,12,08,32,12.60
2013,06,12,08,33,12.50
2013,06,12,08,34,12.50
2013,06,12,08,35,12.40
2013,06,12,08,36,12.40
2013,06,12,08,37,12.40
2013,06,12,08,38,12.40
2013,06,12,08,39,12.40
2013,06,12,08,40,12.40
2013,06,12,08,41,12.40
2013,06,12,08,42,12.40
2013,06,12,08,43,12.30
2013,06,12,08,44,12.30
2013,06,12,08,45,12.30
2013,06,12,08,46,12.30
2013,06,12,08,47,12.30
2013,06,12,08,48,12.30
2013,06,12,08,49,12.30
2013,06,12,08,50,12.30
2013,06,12,08,51,12.30
2013,06,12,08,52,12.30
2013,06,12,08,53,12.30
2013,06,12,08,54,12.30
2013,06,12,08,55,12.40
2013,06,12,08,56,12.40
2013,06,12,08,57,12.40
2013,06,12,08,58,12.40
2013,06,12,08,59,12.40
2013,06,12,09,00,12.40
2013,06,12,09,01,12.40
2013,06,12,09,02,12.40
2013,06,12,09,03,12.40
2013,06,12,09,04,12.40
2013,06,12,09,05,12.40
2013,06,12,09,06,12.50
2013,06,12,09,07,12.50
2013,06,12,09,08,12.40
2013,06,12,09,09,12.50
2013,06,12,09,10,12.50
2013,06,12,09,11,12.50
2013,06,12,09,12,12.50
2013,06,12,09,13,12.50
2013,06,12,09,14,12.60
2013,06,12,09,15,12.60
2013,06,12,09,16,12.60
2013,06,12,09,17,12.60
2013,06,12,09,18,12.60
2013,06,12,09,19,12.70
2013,06,12,09,20,12.70
2013,06,12,09,21,12.70
2013,06,12,09,22,12.70
2013,06,12,09,23,12.70
2013,06,12,09,24,12.70
2013,06,12,09,25,12.70
2013,06,12,09,26,12.70
2013,06,12,09,27,12.70
2013,06,12,09,28,12.70
2013,06,12,09,29,12.70
2013,06,12,09,30,12.70
2013,06,12,09,31,12.70
2013,06,12,09,32,12.70
2013,06,12,09,33,12.70
2013,06,12,09,34,12.70
2013,06,12,09,35,12.70
2013,06,12,09,36,12.70
2013,06,12,09,37,12.60
2013,06,12,09,38,12.60
2013,06,12,09,39,12.60
2013,06,12,09,40,12.60
2013,06,12,09,41,12.60
2013,06,12,09,42,12.60
2013,06,12,09,43,12.60
2013,06,12,09,44,12.60
2013,06,12,09,45,12.60
2013,06,12,09,46,12.60
2013,06,12,09,47,12.60
2013,06,12,09,48,12.60
2013,06,12,09,49,12.60
2013,06,12,09,50,12.70
2013,06,12,09,51,12.70
2013,06,12,09,52,12.70
2013,06,12,09,53,12.70
2013,06,12,09,54,12.70
2013,06,12,09,55,12.70
2013,06,12,09,56,12.70
2013,06,12,09,57,12.70
2013,06,12,09,58,12.70
2013,06,12,09,59,12.70
2013,06,12,10,00,12.70
2013,06,12,10,01,12.70
2013,06,12,10,02,12.70
2013,06,12,10,03,12.70
2013,06,12,10,04,12.70
2013,06,12,10,05,12.70
2013,06,12,10,06,12.70
2013,06,12,10,07,12.70
2013,06,12,10,08,12.70
2013,06,12,10,09,12.70
2013,06,12,10,10,12.70
2013,06,12,10,11,12.70
2013,06,12,10,12,12.70
2013,06,12,10,13,12.80
2013,06,12,10,14,12.80
2013,06,12,10,15,12.80
2013,06,12,10,16,12.80
2013,06,12,10,17,12.80
2013,06,12,10,18,12.90
2013,06,12,10,19,12.90
2013,06,12,10,20,13.00
2013,06,12,10,21,13.00
2013,06,12,10,22,13.10
2013,06,12,10,23,13.10
2013,06,12,10,24,13.10
2013,06,12,10,25,13.20
2013,06,12,10,26,13.20
2013,06,12,10,27,13.20
2013,06,12,10,28,13.20
2013,06,12,10,29,13.20
2013,06,12,10,30,13.30
2013,06,12,10,31,13.30
2013,06,12,10,32,13.30
2013,06,12,10,33,13.30
2013,06,12,10,34,13.30
2013,06,12,10,35,13.30
2013,06,12,10,36,13.30
2013,06,12,10,37,13.30
2013,06,12,10,38,13.40
2013,06,12,10,39,13.40
2013,06,12,10,40,13.50
2013,06,12,10,41,13.50
2013,06,12,10,42,13.60
2013,06,12,10,43,13.70
2013,06,12,10,44,13.70
2013,06,12,10,45,13.70
2013,06,12,10,46,13.70
2013,06,12,10,47,13.70
2013,06,12,10,48,13.80
2013,06,12,10,49,13.80
2013,06,12,10,50,13.80
2013,06,12,10,51,13.80
2013,06,12,10,52,13.90
2013,06,12,10,53,13.90
2013,06,12,10,54,14.00
2013,06,12,10,55,14.00
2013,06,12,10,56,14.10
2013,06,12,10,57,14.10
2013,06,12,10,58,14.20
2013,06,12,10,59,14.20
2013,06,12,11,00,14.20
2013,06,12,11,01,14.20
2013,06,12,11,02,14.20
2013,06,12,11,03,14.20
2013,06,12,11,04,14.20
2013,06,12,11,05,14.30
2013,06,12,11,06,14.30
2013,06,12,11,07,14.30
2013,06,12,11,08,14.30
2013,06,12,11,09,14.30
2013,06,12,11,10,14.30
2013,06,12,11,11,14.30
2013,06,12,11,12,14.20
2013,06,12,11,13,14.20
2013,06,12,11,14,14.20
2013,06,12,11,15,14.20
2013,06,12,11,16,14.20
2013,06,12,11,17,14.20
2013,06,12,11,18,14.20
2013,06,12,11,19,14.20
2013,06,12,11,20,14.20
2013,06,12,11,21,14.20
2013,06,12,11,22,14.20
2013,06,12,11,23,14.20
2013,06,12,11,24,14.20
2013,06,12,11,25,14.20
2013,06,12,11,26,14.20
2013,06,12,11,27,14.20
2013,06,12,11,28,14.20
2013,06,12,11,29,14.30
2013,06,12,11,30,14.30
2013,06,12,11,31,14.30
2013,06,12,11,32,14.30
2013,06,12,11,33,14.30
2013,06,12,11,34,14.30
2013,06,12,11,35,14.30
2013,06,12,11,36,14.40
2013,06,12,11,37,14.50
2013,06,12,11,38,14.50
2013,06,12,11,39,14.60
2013,06,12,11,40,14.60
2013,06,12,11,41,14.70
2013,06,12,11,42,14.70
2013,06,12,11,43,14.70
2013,06,12,11,44,14.70
2013,06,12,11,45,14.60
2013,06,12,11,46,14.70
2013,06,12,11,47,14.70
2013,06,12,11,48,14.80
2013,06,12,11,49,14.80
2013,06,12,11,50,14.90
2013,06,12,11,51,15.00
2013,06,12,11,52,15.10
2013,06,12,11,53,15.20
2013,06,12,11,54,15.30
2013,06,12,11,55,15.40
2013,06,12,11,56,15.50
2013,06,12,11,57,15.60
2013,06,12,11,58,15.70
2013,06,12,11,59,15.70
2013,06,12,12,00,15.70
2013,06,12,12,01,15.80
2013,06,12,12,02,15.80
2013,06,12,12,03,15.80
2013,06,12,12,04,15.70
2013,06,12,12,05,15.70
2013,06,12,12,06,15.50
2013,06,12,12,07,15.50
2013,06,12,12,08,15.40
2013,06,12,12,09,15.40
2013,06,12,12,10,15.40
2013,06,12,12,11,15.40
2013,06,12,12,12,15.40
2013,06,12,12,13,15.40
2013,06,12,12,14,15.50
2013,06,12,12,15,15.50
2013,06,12,12,16,15.50
2013,06,12,12,17,15.40
2013,06,12,12,18,15.30
2013,06,12,12,19,15.20
2013,06,12,12,20,15.10
2013,06,12,12,21,15.10
2013,06,12,12,22,15.00
2013,06,12,12,23,14.90
2013,06,12,12,24,14.80
2013,06,12,12,25,14.80
2013,06,12,12,26,14.80
2013,06,12,12,27,14.70
2013,06,12,12,28,14.70
2013,06,12,12,29,14.60
2013,06,12,12,30,14.60
2013,06,12,12,31,14.70
2013,06,12,12,32,14.70
2013,06,12,12,33,14.70
2013,06,12,12,34,14.60
2013,06,12,12,35,14.70
2013,06,12,12,36,14.70
2013,06,12,12,37,14.70
2013,06,12,12,38,14.70
2013,06,12,12,39,14.60
2013,06,12,12,40,14.60
2013,06,12,12,41,14.70
2013,06,12,12,42,14.70
2013,06,12,12,43,14.70
2013,06,12,12,44,14.70
2013,06,12,12,45,14.70
2013,06,12,12,46,14.70
2013,06,12,12,47,14.80
2013,06,12,12,48,14.80
2013,06,12,12,49,14.80
2013,06,12,12,50,14.80
2013,06,12,12,51,14.80
2013,06,12,12,52,14.70
2013,06,12,12,53,14.70
2013,06,12,12,54,14.60
2013,06,12,12,55,14.50
2013,06,12,12,56,14.40
2013,06,12,12,57,14.40
2013,06,12,12,58,14.30
2013,06,12,12,59,14.30
2013,06,12,13,00,14.30
2013,06,12,13,01,14.30
2013,06,12,13,02,14.30
2013,06,12,13,03,14.20
2013,06,12,13,04,14.10
2013,06,12,13,05,14.10
2013,06,12,13,06,14.00
2013,06,12,13,07,13.90
2013,06,12,13,08,13.90
2013,06,12,13,09,13.90
2013,06,12,13,10,13.80
2013,06,12,13,11,13.80
2013,06,12,13,12,13.80
2013,06,12,13,13,13.80
2013,06,12,13,14,13.80
2013,06,12,13,15,13.70
2013,06,12,13,16,13.70
2013,06,12,13,17,13.60
2013,06,12,13,18,13.60
2013,06,12,13,19,13.60
2013,06,12,13,20,13.50
2013,06,12,13,21,13.50
2013,06,12,13,22,13.50
2013,06,12,13,23,13.50
2013,06,12,13,24,13.50
2013,06,12,13,25,13.50
2013,06,12,13,26,13.60
2013,06,12,13,27,13.60
2013,06,12,13,28,13.60
2013,06,12,13,29,13.60
2013,06,12,13,30,13.60
2013,06,12,13,31,13.60
2013,06,12,13,32,13.70
2013,06,12,13,33,13.70
2013,06,12,13,34,13.70
2013,06,12,13,35,13.80
2013,06,12,13,36,13.80
2013,06,12,13,37,13.80
2013,06,12,13,38,13.90
2013,06,12,13,39,13.90
2013,06,12,13,40,13.90
2013,06,12,13,41,13.90
2013,06,12,13,42,14.00
2013,06,12,13,43,14.00
2013,06,12,13,44,14.00
2013,06,12,13,45,14.00
2013,06,12,13,46,14.00
2013,06,12,13,47,13.90
2013,06,12,13,48,13.90
2013,06,12,13,49,13.90
2013,06,12,13,50,13.90
2013,06,12,13,51,13.90
2013,06,12,13,52,13.90
2013,06,12,13,53,13.90
2013,06,12,13,54,13.90
2013,06,12,13,55,13.80
2013,06,12,13,56,13.80
2013,06,12,13,57,13.80
2013,06,12,13,58,13.80
2013,06,12,13,59,13.80
2013,06,12,14,00,13.80
2013,06,12,14,01,13.80
2013,06,12,14,02,13.80
2013,06,12,14,03,13.80
2013,06,12,14,04,13.80
2013,06,12,14,05,13.80
2013,06,12,14,06,13.80
2013,06,12,14,07,13.80
2013,06,12,14,08,13.80
2013,06,12,14,09,13.80
2013,06,12,14,10,13.80
2013,06,12,14,11,13.80
2013,06,12,14,12,13.80
2013,06,12,14,13,13.80
2013,06,12,14,14,13.90
2013,06,12,14,15,13.90
2013,06,12,14,16,13.90
2013,06,12,14,17,13.90
2013,06,12,14,18,13.90
2013,06,12,14,19,13.90
2013,06,12,14,20,13.90
2013,06,12,14,21,13.90
2013,06,12,14,22,13.90
2013,06,12,14,23,13.80
2013,06,12,14,24,13.80
2013,06,12,14,25,13.80
2013,06,12,14,26,13.80
2013,06,12,14,27,13.80
2013,06,12,14,28,13.80
2013,06,12,14,29,13.80
2013,06,12,14,30,13.80
2013,06,12,14,31,13.80
2013,06,12,14,32,13.80
2013,06,12,14,33,13.80
2013,06,12,14,34,13.80
2013,06,12,14,35,13.80
2013,06,12,14,36,13.80
2013,06,12,14,37,13.80
2013,06,12,14,38,13.80
2013,06,12,14,39,13.80
2013,06,12,14,40,13.80
2013,06,12,14,41,13.80
2013,06,12,14,42,13.80
2013,06,12,14,43,13.80
2013,06,12,14,44,13.80
2013,06,12,14,45,13.90
2013,06,12,14,46,13.90
2013,06,12,14,47,13.90
2013,06,12,14,48,13.90
2013,06,12,14,49,13.90
2013,06,12,14,50,13.90
2013,06,12,14,51,13.90
2013,06,12,14,52,13.90
2013,06,12,14,53,13.90
2013,06,12,14,54,13.90
2013,06,12,14,55,13.90
2013,06,12,14,56,13.90
2013,06,12,14,57,13.90
2013,06,12,14,58,14.00
2013,06,12,14,59,14.00
2013,06,12,15,00,14.00
2013,06,12,15,01,14.10
2013,06,12,15,02,14.10
2013,06,12,15,03,14.10
2013,06,12,15,04,14.10
2013,06,12,15,05,14.10
2013,06,12,15,06,14.20
2013,06,12,15,07,14.20
2013,06,12,15,08,14.20
2013,06,12,15,09,14.30
2013,06,12,15,10,14.40
2013,06,12,15,11,14.50
2013,06,12,15,12,14.60
2013,06,12,15,13,14.70
2013,06,12,15,14,14.70
2013,06,12,15,15,14.70
2013,06,12,15,16,14.70
2013,06,12,15,17,14.60
2013,06,12,15,18,14.60
2013,06,12,15,19,14.60
2013,06,12,15,20,14.50
2013,06,12,15,21,14.50
2013,06,12,15,22,14.40
2013,06,12,15,23,14.30
2013,06,12,15,24,14.20
2013,06,12,15,25,14.20
2013,06,12,15,26,14.10
2013,06,12,15,27,14.00
2013,06,12,15,28,14.00
2013,06,12,15,29,14.00
2013,06,12,15,30,14.00
2013,06,12,15,31,14.00
2013,06,12,15,32,14.00
2013,06,12,15,33,13.90
2013,06,12,15,34,13.90
2013,06,12,15,35,13.90
2013,06,12,15,36,13.90
2013,06,12,15,37,13.90
2013,06,12,15,38,13.90
2013,06,12,15,39,13.90
2013,06,12,15,40,14.00
2013,06,12,15,41,14.00
2013,06,12,15,42,14.10
2013,06,12,15,43,14.20
2013,06,12,15,44,14.30
2013,06,12,15,45,14.30
2013,06,12,15,46,14.30
2013,06,12,15,47,14.30
2013,06,12,15,48,14.30
2013,06,12,15,49,14.30
2013,06,12,15,50,14.30
2013,06,12,15,51,14.30
2013,06,12,15,52,14.40
2013,06,12,15,53,14.40
2013,06,12,15,54,14.40
2013,06,12,15,55,14.50
2013,06,12,15,56,14.40
2013,06,12,15,57,14.40
2013,06,12,15,58,14.40
2013,06,12,15,59,14.40
2013,06,12,16,00,14.40
2013,06,12,16,01,14.40
2013,06,12,16,02,14.40
2013,06,12,16,03,14.40
2013,06,12,16,04,14.40
2013,06,12,16,05,14.40
2013,06,12,16,06,14.40
2013,06,12,16,07,14.40
2013,06,12,16,08,14.40
2013,06,12,16,09,14.40
2013,06,12,16,10,14.40
2013,06,12,16,11,14.40
2013,06,12,16,12,14.40
2013,06,12,16,13,14.50
2013,06,12,16,14,14.50
2013,06,12,16,15,14.50
2013,06,12,16,16,14.50
2013,06,12,16,17,14.50
2013,06,12,16,18,14.50
2013,06,12,16,19,14.50
2013,06,12,16,20,14.40
2013,06,12,16,21,14.50
2013,06,12,16,22,14.50
2013,06,12,16,23,14.40
2013,06,12,16,24,14.40
2013,06,12,16,25,14.40
2013,06,12,16,26,14.40
2013,06,12,16,27,14.40
2013,06,12,16,28,14.30
2013,06,12,16,29,14.30
2013,06,12,16,30,14.30
2013,06,12,16,31,14.30
2013,06,12,16,32,14.30
2013,06,12,16,33,14.30
2013,06,12,16,34,14.30
2013,06,12,16,35,14.30
2013,06,12,16,36,14.30
2013,06,12,16,37,14.30
2013,06,12,16,38,14.30
2013,06,12,16,39,14.30
2013,06,12,16,40,14.40
2013,06,12,16,41,14.40
2013,06,12,16,42,14.40
2013,06,12,16,43,14.50
2013,06,12,16,44,14.60
2013,06,12,16,45,14.60
2013,06,12,16,46,14.60
2013,06,12,16,47,14.70
2013,06,12,16,48,14.70
2013,06,12,16,49,14.70
2013,06,12,16,50,14.70
2013,06,12,16,51,14.70
2013,06,12,16,52,14.70
2013,06,12,16,53,14.60
2013,06,12,16,54,14.60
2013,06,12,16,55,14.60
2013,06,12,16,56,14.60
2013,06,12,16,57,14.60
2013,06,12,16,58,14.60
2013,06,12,16,59,14.60
2013,06,12,17,00,14.70
2013,06,12,17,01,14.70
2013,06,12,17,02,14.70
2013,06,12,17,03,14.70
2013,06,12,17,04,14.80
2013,06,12,17,05,14.80
2013,06,12,17,06,14.90
2013,06,12,17,07,14.90
2013,06,12,17,08,15.00
2013,06,12,17,09,15.00
2013,06,12,17,10,15.00
2013,06,12,17,11,15.10
2013,06,12,17,12,15.10
2013,06,12,17,13,15.10
2013,06,12,17,14,15.10
2013,06,12,17,15,15.10
2013,06,12,17,16,15.10
2013,06,12,17,17,15.10
2013,06,12,17,18,15.10
2013,06,12,17,19,15.00
2013,06,12,17,20,15.00
2013,06,12,17,21,15.00
2013,06,12,17,22,14.90